Change the Weather History Date:

Sunday, January 26, 2014

  Actual Average Record
Temperature  
Mean Temperature 39 °F -  
Max Temperature 55 °F 38 °F 60 °F (2015)
Min Temperature 23 °F 11 °F 11 °F (1978)
Degree Days  
Heating Degree Days 26    
Moisture  
Dew Point 9 °F    
Average Humidity 33    
Maximum Humidity 55    
Minimum Humidity 15    
Precipitation  
Precipitation 0.00 in - - ()
Sea Level Pressure  
Sea Level Pressure 29.95 in    
Wind  
Wind Speed 8 mph (NNW)    
Max Wind Speed 18 mph    
Max Gust Speed -    
Visibility 10 miles    
Events      
Averages and records for this station are not official NWS values.
T = Trace of Precipitation, MM = Missing Value Source: NWS Daily Summary

Daily Weather History Graph

Daily Weather History Graph

Search for Another Location

Airport or City:

Trip Planner

Search our weather history database for the weather conditions in past years. The results will help you decide how hot, cold, wet, or windy it might be!

Date:

Astronomy

Jan. 26, 2014 Rise Set
Actual Time 7:08 AM MST 5:25 PM MST
Civil Twilight 6:41 AM MST 5:53 PM MST
Nautical Twilight 6:10 AM MST 6:23 PM MST
Astronomical Twilight 5:40 AM MST 6:54 PM MST
Moon 2:48 AM MST (1/26) 1:18 PM MST (1/26)
Length of Visible Light 11h 11m
Length of Day
10h 17m
Waning Crescent, 23% of the Moon is Illuminated
Jan 26
Waning Crescent
Jan 30
New
Feb 6
First Quarter
Feb 14
Full
Feb 22
Last Quarter

Hourly Weather History & Observations

Time (MST) Temp. Windchill Dew Point Humidity Pressure Visibility Wind Dir Wind Speed Gust Speed Precip Events Conditions
12:53 AM 32.0 °F 25.6 °F 8.1 °F 37% 30.00 in 10.0 mi NW 6.9 mph - N/A   Clear
1:53 AM 32.0 °F 23.6 °F 9.0 °F 38% 29.99 in 10.0 mi NW 10.4 mph - N/A   Clear
2:53 AM 33.1 °F 23.9 °F 9.0 °F 37% 29.98 in 10.0 mi North 12.7 mph - N/A   Clear
3:53 AM 30.9 °F 22.2 °F 9.0 °F 40% 29.98 in 10.0 mi North 10.4 mph - N/A   Clear
4:53 AM 30.9 °F 22.8 °F 9.0 °F 40% 29.97 in 10.0 mi NNW 9.2 mph - N/A   Clear
5:53 AM 25.0 °F - 9.0 °F 51% 30.03 in 10.0 mi Calm Calm - N/A   Clear
6:53 AM 23.0 °F 15.8 °F 9.0 °F 55% 30.06 in 10.0 mi North 5.8 mph - N/A   Clear
7:53 AM 24.1 °F 15.2 °F 10.0 °F 55% 30.10 in 10.0 mi NNE 8.1 mph - N/A   Clear
8:53 AM 34.0 °F 28.0 °F 12.0 °F 40% 30.08 in 10.0 mi NNE 6.9 mph - N/A   Clear
9:53 AM 39.9 °F 34.5 °F 10.9 °F 31% 30.03 in 10.0 mi North 8.1 mph - N/A   Clear
10:53 AM 45.0 °F 40.1 °F 8.1 °F 22% 29.97 in 10.0 mi North 9.2 mph - N/A   Clear
11:53 AM 46.9 °F - 7.0 °F 20% 29.93 in 10.0 mi SW 8.1 mph - N/A   Clear
12:53 PM 48.9 °F - 3.9 °F 16% 29.88 in 10.0 mi Variable 5.8 mph - N/A   Clear
1:53 PM 52.0 °F - 6.1 °F 16% 29.85 in 10.0 mi Calm Calm - N/A   Clear
2:53 PM 54.0 °F - 6.1 °F 15% 29.81 in 10.0 mi West 8.1 mph - N/A   Clear
3:53 PM 55.0 °F - 10.0 °F 17% 29.81 in 10.0 mi WSW 16.1 mph - N/A   Clear
4:53 PM 51.1 °F - 10.9 °F 20% 29.82 in 10.0 mi WSW 18.4 mph - N/A   Clear
5:53 PM 46.0 °F 41.4 °F 12.0 °F 25% 29.89 in 10.0 mi West 9.2 mph - N/A   Clear
6:53 PM 41.0 °F 36.4 °F 10.0 °F 28% 29.94 in 10.0 mi NW 6.9 mph - N/A   Clear
7:53 PM 34.0 °F 27.2 °F 10.0 °F 37% 29.98 in 10.0 mi NW 8.1 mph - N/A   Clear
8:53 PM 37.0 °F 30.4 °F 12.0 °F 36% 29.93 in 10.0 mi NNW 9.2 mph - N/A   Clear
9:53 PM 37.9 °F 30.9 °F 12.0 °F 35% 29.91 in 10.0 mi North 10.4 mph - N/A   Clear
10:53 PM 32.0 °F 26.4 °F 12.0 °F 44% 29.93 in 10.0 mi NNW 5.8 mph - N/A   Clear
11:53 PM 30.9 °F - 12.0 °F 46% 29.93 in 10.0 mi Calm Calm - N/A   Clear